Regional Weather Roundup
Issued by NWS Cleveland, OH

Home | Current Version | Previous Version | Graphics & Text | Print | Product List | Glossary On
Versions: 1 2 3 4 5 6 7 8 9 10 11 12 13 14 15 16 17 18 19 20 21 22 23 24 25 26 27 28 29 30 31 32 33 34 35 36 37 38 39 40 41 42 43 44 45 46 47 48 49 50
000
ASUS41 KCLE 231310
RWRCLE
OHIO REGIONAL WEATHER ROUNDUP
NATIONAL WEATHER SERVICE WILMINGTON, OH
900 AM EDT SAT MAY 23 2015

NOTE: "FAIR" INDICATES FEW OR NO CLOUDS BELOW 12,000 FEET WITH NO
SIGNIFICANT WEATHER AND/OR OBSTRUCTIONS TO VISIBILITY.

OHZ001>008-015>018-024>027-034-035-043-044-231400-
   NORTHWEST OHIO

CITY           SKY/WX    TMP DP  RH WIND       PRES   REMARKS
DEFIANCE       SUNNY     58  42  55 E5        30.40R
FINDLAY        SUNNY     59  39  47 SE9       30.39S
TOLEDO EXPRESS SUNNY     57  41  55 VRB3      30.40S
TOLEDO EXEC    SUNNY     58  38  47 S7        30.42R
LIMA           SUNNY     60  39  45 S10       30.39R
$$

OHZ009>014-019>023-028>033-038-089-231400-
   NORTHEAST OHIO

CITY           SKY/WX    TMP DP  RH WIND       PRES   REMARKS
CLE-HOPKINS    MOSUNNY   57  34  41 S10       30.44R
CLE-LAKEFRONT  SUNNY     57  33  40 S8        30.42R
CUY CO. ARPT   MOSUNNY   59  32  36 S9        30.44R
LORAIN-ELYRIA  SUNNY     54  38  54 S8        30.43R
ASHTABULA      SUNNY     51  33  50 S8        30.45R
AKRON-CANTON   MOSUNNY   56  30  37 S7        30.44R
WOOSTER        SUNNY     53  36  52 S8        30.44R
MANSFIELD      SUNNY     56  37  49 S7        30.42R
YOUNGSTOWN     MOSUNNY   52  30  43 S6        30.44R
$$

OHZ042-051>053-060>062-070>072-077>081-231400-
  SOUTHWEST OHIO

CITY           SKY/WX    TMP DP  RH WIND       PRES   REMARKS
CINC-COVINGTON CLOUDY    61  50  67 E3        30.39R
CINC-LUNKEN    CLOUDY    56  52  86 CALM      30.40R
HAMILTON       CLOUDY    60  49  66 E5        30.40R
DAYTON         PTSUNNY   60  41  49 SE12      30.40R
WRIGHT-PAT AFB PTSUNNY   61  40  46 SE9       30.40R
DAYTON GENERAL CLOUDY    60  44  55 SE5       30.39R
WILMINGTON     CLOUDY    58  40  51 E6        30.39R
$$

OHZ036-037-039>041-045>050-054>059-063>069-073>076-082>088-231400-
  CENTRAL AND SOUTHEAST OHIO

CITY           SKY/WX    TMP DP  RH WIND       PRES   REMARKS
COLUMBUS       MOSUNNY   57  37  47 SE8       30.41R
OSU AIRPORT    SUNNY     57  38  48 SE5       30.41S
BOLTON FIELD   SUNNY     57  39  51 SE5       30.41S
RICKENBACK AFB MOSUNNY   57  40  52 E3        30.41R
NEWARK         SUNNY     55  41  59 CALM      30.42R
MARION         SUNNY     57  37  47 S10       30.41S
LANCASTER      MOSUNNY   58  41  53 SE7       30.42R
ZANESVILLE     SUNNY     54  39  57 SE3       30.43R
NEW PHILLY     SUNNY     53  38  56 CALM      30.45R
$$


USA.gov is the U.S. government's official web portal to all federal, state and local government web resources and services.